[[{"header":{"parameterUnit":"m.s-1","parameterCategory":1,"la1":30.2992,"la2":30.254,"lo1":-89.0895,"lo2":-89.0443,"dy":0.0025,"dx":0.0025,"nx":19,"ny":19,"refTime":"2026-05-17T09:00:00:Z","depth":0,"parameterNumber":2,"parameterNumberName":"U-component_of_WINDS"},"data":[0,0,0,-5.3799,-5.38,-5.3823,-5.3823,-5.3889,-5.389,0,0,0,0,0,0,0,0,0,0,0,-5.3814,-5.3815,-5.3799,-5.38,-5.3823,-5.3823,-5.3889,-5.389,0,0,0,0,0,0,0,0,0,0,0,-5.3814,-5.3815,-5.3816,-5.3801,-5.3823,-5.3823,-5.3889,-5.3859,0,0,0,0,0,0,0,0,0,0,-5.383,-5.3865,-5.3815,-5.3816,-5.3801,-5.3823,-5.3823,-5.3857,-5.3861,-5.3894,0,-5.393,0,-5.3911,-5.3897,-5.3897,0,0,0,-5.3784,-5.3862,-5.3848,-5.3817,-5.3801,-5.3823,-5.3808,-5.3858,-5.3863,-5.39,-5.393,-5.3932,-5.3912,-5.3898,-5.3898,-5.4145,-5.4147,0,0,-5.3783,-5.383,-5.3845,-5.3852,-5.385,-5.3808,-5.3809,-5.386,-5.3897,-5.393,-5.3933,-5.3913,-5.3898,-5.3899,-5.4143,-5.4146,0,0,0,-5.379,-5.383,-5.3814,-5.3851,-5.3852,-5.3809,-5.3811,-5.3895,-5.3886,-5.3933,-5.3914,-5.3899,-5.39,-5.4141,-5.4144,-5.4282,0,0,0,-5.3789,-5.3834,-5.3815,-5.3844,-5.3852,-5.3873,-5.3844,-5.3882,-5.3886,-5.3914,-5.3899,-5.3901,-5.4139,-5.4143,-5.4274,-5.4339,0,0,0,-5.3805,-5.3835,-5.3846,-5.3846,-5.3857,-5.3871,-5.3865,-5.3882,-5.3876,-5.3897,-5.3901,-5.4138,-5.4142,-5.4266,-5.4327,-5.4416,0,0,0,-5.3836,-5.3969,-5.3849,-5.3991,-5.3858,-5.3957,-5.3864,-5.3936,-5.3971,-5.3899,-5.4139,-5.4144,-5.4264,-5.4319,-5.4409,-5.4499,-5.4541,0,0,-5.403,-5.3994,-5.4074,-5.3967,-5.41,-5.395,-5.4103,-5.4091,-5.4051,-5.4117,-5.4122,-5.4277,-5.4326,-5.4415,-5.4767,-5.4801,0,0,0,-5.4151,-5.4209,-5.4234,-5.4269,-5.4263,-5.4263,-5.4223,-5.4219,-5.4272,-5.4094,-5.4333,-5.4361,-5.4411,-5.4452,-5.4481,-5.452,-5.4166,-5.4165,-5.4165,-5.4491,-5.4432,-5.4559,-5.4504,-5.454,-5.4498,-5.4521,-5.4508,-5.4439,-5.4497,-5.4515,-5.4736,-5.4785,-5.4807,-5.4849,-5.456,-5.456,-5.4561,-5.4561,-5.4767,-5.4839,-5.4744,-5.4833,-5.4771,-5.4846,-5.4812,-5.476,-5.4821,-5.4717,-5.4759,-5.4648,-5.4846,-5.4879,-5.4571,-5.4569,-5.4568,-5.4567,-5.4566,-5.4981,-5.5005,-5.4998,-5.5043,-5.5085,-5.5025,-5.5087,-5.5029,-5.4975,-5.5016,-5.5028,-5.5025,-5.5014,-5.5027,-5.5027,-5.5028,-5.5029,-5.5029,-5.503,-5.5204,-5.5192,-5.5251,-5.5257,-5.5272,-5.5285,-5.5246,-5.5259,-5.5259,-5.5212,-5.5211,-5.5136,-5.4877,-5.4812,-5.5041,-5.5039,-5.5038,-5.5037,-5.5036,-5.5502,-5.5425,-5.5517,-5.5532,-5.5534,-5.558,-5.5506,-5.5539,-5.5542,-5.5574,-5.5491,-5.531,-5.5269,-5.5245,-5.5191,-5.5504,-5.5504,-5.5504,-5.5504,-5.568,-5.5654,-5.5734,-5.5762,-5.5784,-5.5726,-5.5832,-5.5804,-5.5762,-5.5761,-5.5708,-5.5631,-5.561,-5.5582,-5.5551,-5.5499,-5.5884,-5.5884,-5.5884,-5.5859,-5.5833,-5.5933,-5.5891,-5.5889,-5.5889,-5.5986,-5.6023,-5.596,-5.5898,-5.5758,-5.5742,-5.5618,-5.5581,-5.5513,-5.5466,-5.5369,0,0]},{"header":{"parameterUnit":"m.s-1","parameterCategory":1,"la1":30.2992,"la2":30.254,"lo1":-89.0895,"lo2":-89.0443,"dy":0.0025,"dx":0.0025,"nx":19,"ny":19,"refTime":"2026-05-17T09:00:00:Z","depth":0,"parameterNumber":3,"parameterNumberName":"V-component_of_WINDS"},"data":[0,0,0,3.1638,3.1639,3.1689,3.1689,3.1758,3.1759,0,0,0,0,0,0,0,0,0,0,0,3.1627,3.1628,3.1637,3.1639,3.1689,3.1689,3.1758,3.1759,0,0,0,0,0,0,0,0,0,0,0,3.1627,3.1628,3.1628,3.1639,3.1688,3.1689,3.1758,3.1718,0,0,0,0,0,0,0,0,0,0,3.1669,3.1663,3.1627,3.1628,3.1639,3.1688,3.1689,3.1716,3.1721,3.1739,0,3.1757,0,3.1759,3.1764,3.1765,0,0,0,3.1635,3.166,3.167,3.1629,3.164,3.1688,3.1665,3.1719,3.1724,3.1745,3.1758,3.176,3.1761,3.1765,3.1765,3.1887,3.1887,0,0,3.1632,3.1638,3.1666,3.1673,3.1667,3.1663,3.1667,3.1722,3.1735,3.1758,3.1762,3.1762,3.1765,3.1766,3.1886,3.1887,0,0,0,3.1627,3.1636,3.1644,3.167,3.1679,3.1665,3.1669,3.1733,3.1735,3.1762,3.1763,3.1766,3.1767,3.1885,3.1886,3.1931,0,0,0,3.1625,3.1633,3.1643,3.1647,3.1678,3.1707,3.1679,3.1732,3.1738,3.1762,3.1766,3.1767,3.1884,3.1886,3.1928,3.195,0,0,0,3.1622,3.1633,3.1642,3.1647,3.1669,3.1706,3.1711,3.1733,3.1738,3.1765,3.1768,3.1884,3.1885,3.1925,3.1946,3.1986,0,0,0,3.162,3.1677,3.1642,3.1706,3.1669,3.1733,3.1711,3.1757,3.1785,3.1766,3.1884,3.1886,3.1924,3.1943,3.1983,3.2021,3.2038,0,0,3.1695,3.1686,3.1724,3.1694,3.1766,3.1725,3.1803,3.1822,3.1818,3.1864,3.1867,3.1929,3.1945,3.1985,3.2125,3.2138,0,0,0,3.1749,3.1777,3.1794,3.1823,3.1841,3.1858,3.1865,3.1873,3.1912,3.1843,3.1953,3.1963,3.1986,3.2004,3.2015,3.2035,3.1894,3.1894,3.1894,3.1862,3.1858,3.192,3.1922,3.195,3.1959,3.1981,3.1993,3.1976,3.2003,3.2016,3.2102,3.2123,3.2132,3.2153,3.2035,3.2035,3.2036,3.2036,3.1973,3.2011,3.1993,3.2047,3.2042,3.2086,3.2098,3.2086,3.2127,3.209,3.211,3.2072,3.2146,3.2165,3.2039,3.2038,3.2038,3.2038,3.2037,3.2047,3.2065,3.2075,3.2119,3.2153,3.2152,3.2194,3.2186,3.2179,3.2199,3.2214,3.2214,3.2213,3.2207,3.2207,3.2208,3.2208,3.2208,3.2208,3.212,3.2131,3.2168,3.2195,3.2214,3.2239,3.2251,3.2269,3.2287,3.2278,3.2278,3.2262,3.2154,3.2128,3.2213,3.2212,3.2211,3.2211,3.2211,3.2236,3.221,3.2267,3.2287,3.232,3.2355,3.2346,3.2385,3.2399,3.2421,3.24,3.2322,3.2311,3.2303,3.2281,3.24,3.24,3.24,3.24,3.2299,3.2294,3.2354,3.2386,3.2417,3.2416,3.2482,3.2493,3.2499,3.2508,3.249,3.2461,3.2452,3.2447,3.2435,3.2415,3.2565,3.2565,3.2565,3.2371,3.237,3.2427,3.2436,3.2462,3.2485,3.2547,3.2585,3.2587,3.2572,3.2515,3.2508,3.2461,3.2445,3.2429,3.241,3.2373,0,0]}]]